Regional Weather Roundup
Issued by NWS Midland/Odessa, TX

Skip options and go directly to product.
Home | Oldest Version | Previous Version | Current Version | All | Text Only | Save Text | Print | Product List | Glossary Off

Skip product version selection by date and time.   

393
ASUS44 KMAF 240410
RWRMAF
MIDLAND AREA WEATHER ROUNDUP
NATIONAL WEATHER SERVICE MIDLAND TX
1100 PM CDT SAT JUL 23 2016

...IN SOUTHWEST TEXAS AND SOUTHEAST NEW MEXICO...

CITY           SKY/WX    TMP DP  RH WIND       PRES   REMARKS
ALPINE         CLEAR     84  54  35 SE8       30.10R
ANDREWS        FAIR      85  55  35 SE8       29.98R
ARTESIA        CLEAR     86  45  23 SE9       29.95R
BIG SPRING     PTCLDY    85  58  39 E8        29.97R
CARLSBAD       CLEAR     87  46  24 SE9       29.93R
DRYDEN           N/A     90  58  33 E13       29.89R
FORT STOCKTON  CLEAR     87  57  35 SE13G22   29.95R
GUAD PASS      CLEAR     82  40  22 NE20      30.12R
HOBBS          CLEAR     84  50  30 SE9       30.00R
MARFA          CLEAR     79  52  38 E8        30.09R
MIDLAND AIRPK  CLEAR     90  55  29 SE9       29.96R
MIDLAND INTL   CLEAR     89  56  32 SE13      29.95R
ODESSA         CLEAR     89  56  32 SE9       29.97R
PECOS          CLEAR     91  56  29 E16       29.89R
PRESIDIO       FAIR      92  49  22 CALM      29.88R
SEMINOLE       CLEAR     83  52  34 CALM      29.99R
SNYDER           N/A     85  62  44 SE8       29.96R
WINK           CLEAR     90  56  31 SE14      29.91R
$$
...OTHER STATIONS IN TEXAS...

CITY           SKY/WX    TMP DP  RH WIND       PRES   REMARKS
ABILENE        CLEAR     87  61  41 SE14      29.95R
AMARILLO       CLEAR     83  54  36 S12       30.00R
AUSTIN         PTCLDY    88  72  58 S14       29.92R
BROWNSVILLE    CLEAR     83  75  77 SE13      29.93R
CORPUS CHRISTI PTCLDY    84  77  79 SE12      29.91R
DALLAS FTW     CLEAR     89  70  53 SE10      29.91R
DEL RIO        CLEAR     93  59  31 E12       29.83R
EL PASO        PTCLDY    93  40  15 SE5       29.93R
HOUSTON INT    PTCLDY    86  75  69 S9        29.95R
LUBBOCK        CLEAR     83  57  41 SE8       29.98R
SAN ANGELO     PTCLDY    90  59  35 SE10      29.92R
SAN ANTONIO    PTCLDY    86  70  58 SE18      29.93R
WACO           CLEAR     89  68  49 SE8       29.92R
WICHITA FALLS  NOT AVBL
$$
...OTHER LOCATIONS IN NEW MEXICO...

CITY           SKY/WX    TMP DP  RH WIND       PRES   REMARKS
ALAMAGORDO     CLOUDY    86  39  19 SE6       29.96R
ALBUQUERQUE    CLOUDY    87  45  23 SE16G24   30.10R THUNDER
CANNON AFB     CLEAR     78  51  38 SE9       30.04R
CLOVIS         CLEAR     79  48  34 SE9       30.04R
HOLLOMAN AFB   NOT AVBL
ROSWELL        CLEAR     85  41  21 SE7       29.95R
RUIDOSO          N/A     73  39  29 SE9       30.27R
SANTA FE       CLOUDY    74  54  49 NE15      30.21R
TRUTH OR CONSE PTCLDY    86  44  23 NW18      30.03R
TUCUMCARI      CLEAR     84  41  21 CALM      29.99R
$$

USA.gov is the U.S. government's official web portal to all federal, state and local government web resources and services.